ECHOSTAR 5

导读 | 豆包AI

ECHOSTAR 5是美国EchoStar公司运营的地球静止轨道通信卫星,于1999年9月23日发射升空,目前仍保持在轨运行。作为EchoStar卫星星座的核心成员,它主要承担卫星电视广播传输任务,依托高功率转发器技术为北美地区提供稳定的电视信号传输,支撑DirecTV等主流卫星电视平台的日常运营,推动了卫星通信产业早期的商业化发展。

基本信息
目录编号:
25913
目录名称:
ECHOSTAR 5
国际标识:
1999-050A
轨道中心:
EARTH
卫星名称:
ECHOSTAR 5
卫星全名:
--
卫星状态:
在轨 (已飞行9669 天)
发射日期:
1999-09-23 UTC
国别 :
美国 (US)
星等 :
--
轨道信息
数据来源 国际轨道数据 AOE轨道数据
星历时间 2026-03-13T21:45:46+0800
11小时前
查看轨道信息
2026-03-14T08:00:00+0800
1小时前
查看轨道信息
半长轴 42597.475km 42597.273km
偏心率 0.000505 0.0004913
轨道倾角 11.794° 11.794°
近地点辐角 303.580° 305.868°
升交点赤经 36.864° 36.859°
平近点角 53.851° 203.210°
近地点 36197.826km 36198.207km
远地点 36240.85km 36240.065km
周期 1458.262分钟 1458.251分钟
每日圈数 0.987477 0.987484
详细信息
使用方式:
暂无
2D轨道图
3D轨道图
轨道高度分析图
轨道倾角分析图
轨道综合分析图
查看轨道综合分析图